星链-30282 (STARLINK-30282 )

导读

STARLINK-30282是美国太空探索技术公司SpaceX星链卫星互联网项目的卫星,于2023年9月16日发射。作为星链低轨卫星星座的组成部分,它将为全球提供高速互联网接入服务,尤其服务偏远地区与网络基础设施匮乏区域,进一步扩充星链星座规模,提升全球网络覆盖能力。

Basic Information
目录编号:
57883
目录名称:
STARLINK-30282
国际标识:
2023-144V
轨道中心:
EARTH
卫星名称:
星链-30282
卫星全名:
星链-30282 (STARLINK-30282 )
卫星状态:
在轨 (已飞行1085 天)
发射日期:
2023-09-16 UTC
国别 :
美国 (US)
星等 :
--
Orbit Information
数据来源 国际轨道数据 AOE轨道数据
星历时间 2026-09-04T22:21:24+0800
1天前
查看轨道信息
2026-09-01T03:00:00+0800
4天前
查看轨道信息
半长轴 6861.202km 6861.202km
偏心率 0.0003042 0.00011
轨道倾角 43.008° 43.008°
近地点辐角 284.940° 193.430°
升交点赤经 354.443° 15.940°
平近点角 75.112° 88.936°
近地点 480.977km 482.31km
远地点 485.153km 483.82km
周期 94.267分钟 94.267分钟
每日圈数 15.275749 15.275747
Detailed Information
固有亮度:
5
最大亮度:
0.3
卫星平台:
Starlink v2.0 mini
覆盖范围:
全球
运营商:
太空探索技术公司
运营商所在国:
美国
制造商(研发单位):
太空探索技术公司
制造商所在国:
美国
使用方式:
暂无
Satellite Introduction
星链(Starlink)计划是由太空探索技术公司(SpaceX)提出的一个巨型低轨卫星互联网星座项目,计划在2019年至2024年间在太空搭建由约1.2万颗卫星组成的“星链”网络,其中1584颗将部署在地球上空550千米处的近地轨道,并从2020年开始工作。该卫星仍在工作。
2D Orbit Map
3D Orbit Map
Orbit Altitude Analysis Chart
Orbit Inclination Analysis Chart
Orbit Comprehensive Analysis Chart
View Comprehensive Chart
Conjunction Data List
Event ID Objects TCA Miss Dist (km) Collision Risk Probability Collision Risk Index (CRI) Action
CDM_260907-004205-788306-735421
2026-09-07T
00:42:58+0000
0.807 km
远距离
2.633089E-5 中风险 0.63
CDM_260906-191305-788306-735421
2026-09-06T
19:13:25+0000
1.256 km
极远距离
5.803031E-6 低风险 0.5
CDM_260906-204705-788306-735421
2026-09-06T
20:47:35+0000
1.314 km
极远距离
4.99034E-6 低风险 0.49
CDM_260907-021705-788306-735421
2026-09-07T
02:17:08+0000
1.479 km
极远距离
3.404974E-6 低风险 0.46
CDM_260907-173105-788306-798621
2026-09-07T
17:31:34+0000
2.509 km
极远距离
1.319163E-6 低风险 0.37
CDM_260906-143303-926905-788323
POPACS 2 (39269)
2026-09-06T
14:33:59+0000
2.655 km
极远距离
1.156018E-6 低风险 0.36
CDM_260907-000705-788306-436721
2026-09-07T
00:07:15+0000
2.369 km
极远距离
1.120378E-6 低风险 0.36
CDM_260906-052505-245305-788321
2026-09-06T
05:25:45+0000
1.865 km
极远距离
9.370717E-7 极低风险 0.34
CDM_260906-230805-788306-735421
2026-09-06T
23:08:49+0000
2.972 km
极远距离
7.419608E-7 极低风险 0.32